sat.trackr.live / text

‹ back to catalog

ONEWEB-0622

NORAD 55163 · 2023-004Z

PAYLOAD ACTIVE UNKNOWN

§ Identity

Operator
Country
UK
Launch date
2023-01-10
Launch site
AFETR
Launch vehicle
Mass (kg)
RCS (m²)

Purposes: comms

External: N2YO · Heavens-Above · Gunter

§ Orbital elements

Epoch: 2026-09-19T05:51:51.928992Z

Period
109.80 min
Inclination
87.8964°
Eccentricity
0.0001861
Mean motion
13.11418992 rev/d
Perigee alt
1,216.3 km
Apogee alt
1,219.1 km
Semi-major
7,595.8 km
B*
-7.8638e-4
RAAN
2.3743°
Arg perigee
129.9883°
Mean anomaly
230.1408°
Rev number
17,812

§ Raw data

ONEWEB-06221 55163U 23004Z   26262.24435103 -.00000266  00000+0 -78638-3 0  99992 55163  87.8964   2.3743 0001861 129.9883 230.1408 13.11418992178125

JSON: /api/v1/satellites/55163 · /tle

For live sub-satellite position, see the globe view (requires WebGL).

§ Visibility from observer

Set your observer location to see the next 7 days of passes ≥ 10°. The values pass through the URL so the page stays shareable.

No JS? Fill the form by hand. The geolocation button needs JavaScript.